Regional Weather Roundup
Issued by NWS

Home | Current Version | Previous Version | Text Only | Print | Product List | Glossary Off
Versions: 1 2 3 4 5 6 7 8 9 10 11 12 13 14 15 16 17 18 19 20 21 22 23 24 25 26 27

000
ASUS45 KTFX 101510
RWRMT
MONTANA REGIONAL WEATHER ROUNDUP
NATIONAL WEATHER SERVICE GREAT FALLS MT
800 AM MST SAT DEC 10 2016

NOTE: "FAIR" INDICATES FEW OR NO CLOUDS BELOW 12000 FEET WITH NO
SIGNIFICANT WEATHER AND/OR OBSTRUCTIONS TO VISIBILITY.

MTZ001>007-043-101600-
WEST OF THE DIVIDE

CITY           SKY/WX    TMP DP  RH WIND       PRES   REMARKS
KALISPELL      LGT SNOW  10   7  87 CALM      29.75F FOG
MISSOULA       LGT SNOW  16  15  96 W3        29.75F FOG
BUTTE          LGT SNOW  21  18  88 CALM      29.66F FOG
MULLAN PASS    LGT SNOW  19  17  92 NW8       29.59R VSB 1   WCI   9
ANACONDA         N/A     28  23  80 S7        29.65F WCI  21
DEER LODGE       N/A     12  10  92 CALM      29.68F
EUREKA           N/A      7   3  85 NW3       29.84F VSB 3/4
HAMILTON         N/A     14  10  85 CALM      29.71F
LIBBY            N/A     12   9  85 CALM      29.80S VSB 1/2
PLAINS           N/A     15   9  77 CALM      29.80F
RONAN            N/A     13   8  80 CALM      29.77F
$$

MTZ008-052>055-101600-
SOUTHWEST MONTANA

CITY           SKY/WX    TMP DP  RH WIND       PRES   REMARKS
BOZEMAN        CLOUDY    11   7  84 NE3       29.72F
DILLON         CLOUDY    15  12  88 CALM      29.68F
W YELLOWSTONE  CLOUDY    27  25  93 SW8       29.73F WCI  18
ENNIS          MOCLDY    32  27  80 S12       29.71  WCI  23
THREE FORKS      N/A      9 -24  21 CALM      29.75F
TWIN BRIDGES     N/A     17  10  74 CALM      29.72F
$$

MTZ009-010-012-014-046-048-049-054-101600-
EAST SLOPES AND CENTRAL MONTANA

CITY           SKY/WX    TMP DP  RH WIND       PRES   REMARKS
CUT BANK       CLOUDY     1  -2  87 SE7       29.74F WCI -12
GREAT FALLS    CLOUDY     1  -3  83 N3        29.74F
MALMSTROM AFB  CLOUDY     2   0  90 NW5       29.77F
HELENA         CLOUDY     7   3  84 CALM      29.75F
AUGUSTA        FLURRIES  -2  -5  87 NE7       29.66F WCI -15
BOWMANS CRNR   MOCLDY    -4  -7  86 NE9       29.63F WCI -20
CHOTEAU          N/A      0  -4  85 MISG      29.74F
CONRAD           N/A      1  -2  88 NE3       29.79F
FAIRFIELD      FLURRIES   0  -4  83 NE1       29.72F
POWER          CLOUDY     2  -1  86 E7        29.72F WCI -10
RAYNESFORD     CLOUDY     8   3  80 E8        29.70F WCI  -5
ULM              N/A      0  -4  85 NW10      29.76F WCI -16
$$

MTZ011-013-016-021-045-047-050-051-101600-
NORTH CENTRAL MONTANA

CITY           SKY/WX    TMP DP  RH WIND       PRES   REMARKS
HAVRE          CLOUDY     3  -1  83 E14       29.89F WCI -15
LEWISTOWN      CLOUDY     7   3  84 NW5       29.70F
N BAR RANCH    MOCLDY    12   9  85 N5        29.71F
CHINOOK          N/A      3  -2  78 E15       29.93F WCI -15
DENTON         MOCLDY     5   2  89 MISG      29.73S
FORT BENTON      N/A      7   1  78 N8        29.84F WCI  -6
GEYSER         CLOUDY     4   1  86 E2        29.71F
GRASS RANGE    MOCLDY     6   3  85 CALM      29.71F
JUDITH GAP     FLURRIES   7   3  84 S18       29.69F WCI -12
ROY            FLURRIES   4   2  90 MISG      29.76F
STANFORD       MOCLDY     4   2  91 N1        29.68F
WINIFRED       FLURRIES   3   1  89 MISG      29.75F
$$

MTZ017>020-022>027-061-062-101600-
NORTHEAST MONTANA

CITY           SKY/WX    TMP DP  RH WIND       PRES   REMARKS
GLASGOW        LGT SNOW  -2  -7  79 E17       30.01F WCI -23
JORDAN           N/A      5   0  79 SE7       29.93F WCI  -7
SIDNEY         FLURRIES  -1  -7  75 E8        30.14F WCI -15
WOLF POINT     FLURRIES  -3 -10  72 E15       30.10F WCI -23
PLENTYWOOD       N/A     -8 -13  77 E10       30.12S WCI -26
SCOBEY           N/A     -5 -17  56 E8        30.06S WCI -20
$$

MTZ028>42-056>058-101600-
SOUTHCENTRAL AND SOUTHEAST MONTANA

CITY           SKY/WX    TMP DP  RH WIND       PRES   REMARKS
BAKER          CLOUDY     0  -6  76 SE21      29.98F WCI -22
BILLINGS       SNOW       9   5  84 S3        29.81F VSB 1/2
LIVINGSTON     CLOUDY    11   7  84 CALM      29.72F
MILES CITY     CLOUDY     7  -1  70 SE13      29.94F WCI  -9
BIG TIMBER     CLOUDY     9   5  85 CALM      29.76F
EKALAKA          N/A      1  -7  69 SE14      29.86F WCI -17
FORSYTH          N/A      9   3  78 E7        29.91F WCI  -3
HARLOWTON      FLURRIES   7   4  86 NW5       29.74F
LAUREL           N/A      9  -5  53 CALM      29.81F
$$

REGIONAL REPORTS...DAKOTAS

CITY           SKY/WX    TMP DP  RH WIND       PRES   REMARKS
WILLISTON      CLOUDY    -7 -12  79 E6        30.18F WCI -20
MINOT          CLOUDY   -20 -25  77 CALM      30.29F
DICKINSON      CLOUDY    -5 -10  79 SE16      30.09F WCI -27
BEACH          CLOUDY     0  -4  85 SE14      30.05F WCI -19
CROSBY           N/A    -18 -24  76 E5        30.23F
TIOGA          MOCLDY   -18 -22  83 E6        30.19F WCI -33
WATFORD CITY   CLOUDY    -8 -13  77 SE12      30.17F WCI -27
BISMARCK       CLOUDY   -17 -22  78 E6        30.33S WCI -32
GRAND FORKS    CLOUDY    -8 -14  74 N5        30.47F
FARGO          CLOUDY    -4 -10  75 CALM      30.45F
BUFFALO SD       N/A      0  -4  83 SE16      29.92F WCI -20
RAPID CITY     CLOUDY     2  -2  83 SE8       29.99F WCI -12
$$

REGIONAL REPORTS...WYOMING/IDAHO/WASHINGTON

CITY           SKY/WX    TMP DP  RH WIND       PRES   REMARKS
GILLETTE       CLOUDY     4   0  83 S10       29.79F WCI -11
SHERIDAN       CLOUDY    11   5  77 CALM      29.80F
BUFFALO WY     CLOUDY     8   2  76 S5        29.75F
CODY           CLOUDY    11   6  81 N5        29.74F
YELLOWSTONE LA   N/A     27  24  89 VRB6      29.75F WCI  20
IDAHO FALLS    CLOUDY    34  32  92 S16       29.81F WCI  24
SALMON         CLOUDY    19  18  93 CALM      29.77F
BOISE          CLOUDY    33  33 100 CALM      29.84S FOG
SPOKANE        CLOUDY    19  17  92 SW6       29.80R WCI  11
$$

REGIONAL REPORTS...ALBERTA

CITY           SKY/WX    TMP DP  RH WIND       PRES   REMARKS
EDMONTON       CLOUDY   -17 -24  70 E2        30.02F
CALGARY        CRYSTALS  -6 -11  77 SE8       29.76F WCI -21
LETHBRIDGE     MOCLDY     1  -2  85 E7        29.82S WCI -11
MEDICINE HAT   FLURRIES   0  -4  85 N3        29.92F
WATERTON GATE    N/A     -4  -9  77 CALM        N/A
CARDSTON         N/A     -6 -11  77 NW2         N/A
MILK RIVER       N/A      3   0  85 S12         N/A  WCI -13
$$

REGIONAL REPORTS...SASKATCHEWAN

CITY           SKY/WX    TMP DP  RH WIND       PRES   REMARKS
SWIFT CURRENT  LGT SNOW  -2  -6  84 SE15      29.97F WCI -22
REGINA         MOCLDY   -17 -22  76 SE10      30.21F WCI -37
SASKATOON      PTCLDY   -11 -17  77 E6        30.21F WCI -25
CYPRESS HILLS    N/A     -6 -11  77 SE8         N/A  WCI -21
VAL MARIE        N/A      1  -4  78 SE13        N/A  WCI -16
ROCKGLEN         N/A     -6 -11  77 SE10        N/A  WCI -23
ASSINIBOIA       N/A    -15 -20  76 E3          N/A
$$




USA.gov is the U.S. government's official web portal to all federal, state and local government web resources and services.